Flag for Canada Weather past 2 weeks in Pond Inlet, Nunavut Territory, Canada

Now
-22 °F

Light snow. Passing clouds.


Feels Like: -40 °F
Forecast: -27 / -15 °F
Wind: 7 mph from South

Location: Pond Inlet

Current Time: Mar 29, 2015 at 10:22:50 AM

Latest Report: Mar 29, 2015 at 9:00 AM


Visibility: 9 mi

Pressure: 29.65 "Hg

Humidity: 68%

Dew point: -29 °F

Location of Pond InletLocation

Historic Weather in Pond Inlet — Graph

°F

Pond Inlet temperature yesterday

Maximum temperature yesterday: -17 °F (at 1:00 PM)
Minimum temperature yesterday: -27 °F (at 1:00 AM)
Average temperature yesterday: -23 °F

Past Weeks' High & Low Weather Summary

 TemperatureHumidityPressure
High12 °F (Mar 17, 6:00 AM)92% (Mar 16, 7:57 AM)30.23 "Hg (Mar 16, 7:57 AM)
Low-27 °F (Mar 22, 5:00 AM)67% (Mar 14, 9:00 AM)29.31 "Hg (Mar 16, 4:00 PM)
Average-14 °F78%29.74 "Hg
* Reported Mar 14 9:00 AM — Mar 29 9:00 AM, Pond Inlet, Weather by CustomWeather, © 2015

Note: Actual official high and low records may vary slightly from our data, if they occured in-between our weather recording intervals... More about our weather records

Advertising

Pond Inlet weather history for previous 24 hours

 ConditionsComfort  
Time TempWeatherWind HumidityBarometerVisibility
9:00 AM
Sun, Mar 29
-22 °FLight snow. Passing clouds.7 mph68%29.65 "Hg9 mi
8:02 AM-26 °FLight snow. Partly sunny.6 mph75%29.65 "Hg9 mi
7:00 AM-24 °FLight snow. Cloudy.7 mph75%29.65 "Hg7 mi
6:00 AM-22 °FScattered clouds.5 mph75%29.67 "Hg9 mi
5:00 AM-26 °FClear.7 mph67%29.66 "Hg9 mi
4:00 AM-24 °FOvercast.7 mph68%29.66 "Hg9 mi
3:00 AM-22 °FClear.3 mph68%29.66 "Hg9 mi
2:00 AM-22 °FClear.5 mph75%29.66 "Hg9 mi
1:00 AM-24 °FClear.5 mph75%29.66 "Hg9 mi
12:00 AM-24 °FClear.5 mph75%29.67 "Hg9 mi
11:00 PM
Sat, Mar 28
-24 °FClear.3 mph68%29.67 "Hg9 mi
10:00 PM-24 °FClear.5 mph75%29.67 "Hg9 mi
9:00 PM-24 °FClear.5 mph68%29.67 "Hg9 mi
8:00 PM-26 °FClear.5 mph75%29.67 "Hg9 mi
7:00 PM-24 °FSunny.2 mph75%29.67 "Hg9 mi
6:00 PM-24 °FSunny.5 mph75%29.67 "Hg9 mi
5:00 PM-18 °FPassing clouds.2 mph75%29.67 "Hg40 mi
4:00 PM-18 °FPassing clouds.2 mph75%29.66 "Hg40 mi
3:00 PM-18 °FPassing clouds.3 mph75%29.66 "Hg40 mi
2:00 PM-17 °FPassing clouds.5 mph76%29.65 "Hg40 mi
1:00 PM-17 °FSunny.3 mph76%29.65 "Hg9 mi
12:00 PM-20 °FSunny.5 mph75%29.65 "Hg9 mi
11:00 AM-20 °FSunny.3 mph75%29.66 "Hg9 mi
10:00 AM-22 °FSunny.5 mph75%29.65 "Hg9 mi
Weather by CustomWeather, © 2015

See weather overviewHow to use our weather pages